Regional Weather Roundup
Issued by NWS Newport/Morehead, NC

Current Version | Previous Version | Graphics & Text | Print | Product List | Glossary Off
Versions: 1 2 3 4 5 6 7 8 9 10 11 12 13 14 15 16 17 18 19 20 21 22 23 24 25 26 27 28 29 30 31 32 33 34 35 36 37 38 39 40 41 42 43 44 45 46

000
ASUS42 KMHX 211925
RWRMHX
WEATHER ROUNDUP FOR EASTERN NORTH CAROLINA
NATIONAL WEATHER SERVICE NEWPORT/MOREHEAD CITY NC
300 PM EDT SAT APR 21 2018

NOTE: "FAIR" INDICATES FEW OR NO CLOUDS BELOW 12,000 FEET
WITH NO SIGNIFICANT WEATHER AND/OR OBSTRUCTIONS TO VISIBILITY

NCZ015>017-031-032-045>047-102-103-212000-
NORTH COAST

CITY           SKY/WX    TMP DP  RH WIND       PRES   REMARKS
EDENTON        FAIR      63  41  44 SE7       30.39F
ELIZABETH CITY FAIR      58  43  57 E10       30.40F
KITTY HAWK     FAIR      51  39  61 NE3       30.41F
MANTEO         FAIR      54  40  59 E10       30.43F

$$

NCZ045>047-081-094-103-104-212000-
CENTRAL COAST

CITY           SKY/WX    TMP DP  RH WIND       PRES   REMARKS
FRISCO         FAIR      60  38  43 NE9       30.41F

$$

NCZ095-097-098-100-101-212000-
SOUTHERN COAST

CITY           SKY/WX    TMP DP  RH WIND       PRES   REMARKS
BEAUFORT       FAIR      63  40  42 E13       30.39F
CEDAR ISLAND   NOT AVBL
JACKSONVILLE   FAIR      66  37  34 S9        30.37F
PINEY ISLAND   NOT AVBL
WILMINGTON     FAIR      65  29  25 E7        30.38F


$$

NCZ011>013-027>030-043-044-078>080-089-090>093-098-212000-
COASTAL PLAIN

CITY           SKY/WX    TMP DP  RH WIND       PRES   REMARKS
AHOSKIE        FAIR      62  32  31 E3        30.37F
CLINTON        FAIR      67  37  32 N5        30.38F
ELIZABETHTOWN  FAIR      69  33  26 MISG      30.36F
GOLDSBORO      FAIR      66  36  32 SW5       30.36F
GREENVILLE     FAIR      66  32  28 CALM      30.37F
HAVELOCK       SUNNY     67  40  37 NE14      30.39F
KENANSVILLE    FAIR      66  32  28 E3        30.37F
KINSTON        FAIR      66  32  28 E6        30.38F
NEW BERN       FAIR      65  40  39 E10       30.39F
RICHLANDS      FAIR      68  36  30 VRB7      30.36F
ROCKY MOUNT    FAIR      66  33  29 VRB3      30.38F
WASHINGTON     FAIR      67  32  27 SW5       30.37F
WHITEVILLE     FAIR      69  36  30 E6        30.35F

$$

AMZ130-135-150-152-154-156-158-170-250-252-270-ANZ085-086-088-633-658-670-212000-
MARINE OBSERVATIONS

STATION/POSITION TIME  TEMP    WIND        PRES    WAVE   SWELL
                       AIR SEA DIR/SP/G            HT/PER HT/PER
                 (UTC) (F)     (DEG/KT/KT) (MB)    (FT/S) (FT/S)
CHESAPEAKE LIGHT NOT AVBL
64 E VA BEACH    1850   46 49   10/ 10/ 12 1031.0    3/ 5   2/ 5
DUCK             1900   51 52   80/  7/  9 1029.7
2 E DUCK         1900      52                N/A     2/ 5
OREGON INLET     1900           40/ 11/ 13 1029.9
13E OREGON INLT  1848      51                N/A     2/ 6   2/ 6
HATTERAS CG      1900   54 60   60/ 11/ 13 1029.4
DIAMOND BUOY     1910   55 71   20/ 14/ 17 1029.6
CAPE LOOKOUT     1900           70/ 14/ 15 1029.6
BEAUFORT LAB     1900   59 62  110/ 14/ 18 1029.1
30 SE NEW RVR IN 1908   59 66   80/ 10/ 14 1029.2
30 SE NEW RVR IN 1900      66                N/A     4/ 8
27 SE WRIGHTSVLE 1908   61 66   70/ 16/ 21 1028.6
5 SE WRIGHTSVLE  1908   60 60   80/ 12/ 16 1028.6
225 S CAPE HAT   1910   64 73   50/ 12/ 16 1026.5
41 SE CHARLESTON 1910   66 67   80/ 16/ 19 1026.7

$$




USA.gov is the U.S. government's official web portal to all federal, state and local government web resources and services.